EDT,Max TemperatureF,Mean TemperatureF,Min TemperatureF,Max Dew PointF,MeanDew PointF,Min DewpointF,Max Humidity, Mean Humidity, Min Humidity, Max Sea Level PressureIn, Mean Sea Level PressureIn, Min Sea Level PressureIn, Max VisibilityMiles, Mean VisibilityMiles, Min VisibilityMiles, Max Wind SpeedMPH, Mean Wind SpeedMPH, Max Gust SpeedMPH,PrecipitationIn, CloudCover, Events, WindDirDegrees
2012-9-1,87,78,68,72,64,54,100,68,31,30.22,30.16,30.07,10.0,8.8,4.0,8,2,,0.00,1,,271
2012-9-2,84,76,69,77,68,63,100,83,48,30.11,30.04,29.97,10.0,9.6,1.0,21,2,16,0.00,2,Rain-Thunderstorm,207
2012-9-3,82,76,69,72,69,61,100,89,48,30.02,29.98,29.94,10.0,9.4,5.0,14,3,18,0.00,4,Rain-Thunderstorm,205
2012-9-4,77,73,69,73,70,70,100,98,78,29.99,29.96,29.92,10.0,6.5,0.5,7,3,,0.00,8,Fog-Rain-Thunderstorm,178
2012-9-5,82,76,69,72,67,59,100,80,48,30.00,29.95,29.91,10.0,7.3,0.2,9,2,,0.00,6,Fog-Rain,205
2012-9-6,84,76,69,72,67,59,100,78,45,30.02,29.96,29.92,10.0,8.9,2.5,10,3,,0.00,4,,252
2012-9-7,87,76,66,70,64,52,100,70,29,30.01,29.95,29.87,10.0,8.8,4.0,7,1,,0.00,0,,114
2012-9-8,80,73,64,70,65,54,100,76,54,29.90,29.83,29.78,10.0,9.7,3.0,12,3,,0.00,3,Rain-Thunderstorm,269
2012-9-9,78,68,57,59,50,39,94,60,26,30.03,29.94,29.86,10.0,10.0,10.0,7,2,,0.00,2,,308
2012-9-10,78,66,55,55,47,37,94,52,24,30.16,30.11,30.03,10.0,10.0,10.0,8,1,,0.00,1,,108
2012-9-11,78,68,59,57,51,41,94,62,26,30.30,30.23,30.16,10.0,10.0,10.0,8,1,,0.00,5,,122
2012-9-12,77,68,59,61,53,43,100,66,31,30.37,30.30,30.25,10.0,10.0,10.0,8,1,,0.00,4,,117
2012-9-13,77,66,55,59,53,46,100,67,36,30.36,30.29,30.23,10.0,9.9,7.0,9,1,,0.00,3,,86
2012-9-14,78,70,62,59,51,45,88,57,30,30.28,30.23,30.18,10.0,10.0,10.0,5,0,,0.00,5,Rain,93
2012-9-15,82,70,59,61,55,46,100,65,28,30.22,30.16,30.11,10.0,10.0,10.0,6,0,,0.00,3,,149
2012-9-16,80,71,62,68,61,52,100,77,37,30.15,30.10,30.05,10.0,10.0,7.0,8,0,,0.00,5,,174
2012-9-17,78,71,64,72,67,61,100,91,54,30.10,29.99,29.84,10.0,6.3,2.0,10,2,,0.00,7,Rain,136
2012-9-18,71,68,64,70,66,54,100,88,64,29.90,29.80,29.74,,,,12,7,17,0.00,6,,202
2012-9-19,62,58,55,54,52,50,94,77,63,29.93,29.93,29.92,,,,10,6,,0.00,0,,315
2012-9-20,77,70,62,61,54,46,94,61,34,30.16,30.09,30.06,10.0,10.0,10.0,7,3,,0.00,3,,123
2012-9-21,80,70,60,63,56,46,100,68,30,30.12,30.07,30.00,10.0,9.2,5.0,6,1,,0.00,4,,204
2012-9-22,82,72,62,61,52,43,94,54,25,30.06,30.02,29.98,10.0,9.7,5.0,15,4,21,0.00,1,,279
2012-9-23,78,64,51,46,32,12,82,36,9,30.17,30.11,30.06,10.0,10.0,10.0,15,2,22,0.00,0,,313
2012-9-24,71,58,44,41,31,19,62,39,14,30.23,30.18,30.15,10.0,10.0,10.0,9,2,,0.00,0,,85
2012-9-25,77,64,50,52,45,34,87,56,21,30.26,30.20,30.17,10.0,10.0,10.0,7,0,,0.00,1,,155
2012-9-26,80,66,53,59,48,37,100,59,21,30.25,30.20,30.16,10.0,9.7,5.0,8,1,,0.00,0,,239
2012-9-27,82,68,55,57,48,32,100,55,16,30.24,30.18,30.12,10.0,9.9,7.0,7,1,,0.00,0,,290
2012-9-28,82,70,59,63,55,46,100,63,28,30.16,30.09,30.01,10.0,9.8,7.0,8,1,,0.00,0,,279
2012-9-29,77,70,64,64,59,52,94,71,41,30.04,29.97,29.89,10.0,10.0,10.0,9,2,,0.00,1,Rain,275
2012-9-30,68,64,60,64,60,54,100,85,60,29.93,29.88,29.84,10.0,6.1,0.2,5,1,,0.00,6,Fog-Rain,100